| time (UTC) | temp F | wind direction | speed MPH | gust MPH | rain 1hr in | rain 24hr in | rain mn in | humidity % | barometer mb |
| 20260903165926 | 80 | 0 | 4.0 | 16.0 | 0.25 | 1.26 | 0.29 | 84 | 1015.0 |
| 20260903164427 | 84 | 243 | 3.0 | 13.0 | 0.08 | 1.26 | 0.12 | 78 | 1015.1 |
| 20260903162926 | 86 | 0 | 2.0 | 7.0 | 0.00 | 1.26 | 0.04 | 79 | 1014.6 |
| 20260903161426 | 86 | 149 | 1.0 | 5.0 | 0.00 | 1.26 | 0.04 | 78 | 1014.6 |
| 20260903155926 | 85 | 149 | 0.0 | 3.0 | 0.00 | 1.26 | 0.04 | 79 | 1014.6 |
| 20260903154426 | 85 | 149 | 2.0 | 5.0 | 0.00 | 1.26 | 0.04 | 80 | 1014.4 |
| 20260903152925 | 85 | 124 | 0.0 | 5.0 | 0.00 | 1.26 | 0.04 | 80 | 1014.5 |
| 20260903151425 | 85 | 121 | 0.0 | 3.0 | 0.00 | 1.26 | 0.04 | 83 | 1014.6 |
| 20260903145924 | 84 | 121 | 1.0 | 5.0 | 0.00 | 1.26 | 0.04 | 84 | 1014.8 |
| 20260903144424 | 83 | 121 | 2.0 | 9.0 | 0.00 | 1.26 | 0.04 | 84 | 1015.2 |
| 20260903142924 | 83 | 138 | 1.0 | 7.0 | 0.00 | 1.26 | 0.04 | 85 | 1015.2 |
| 20260903141424 | 83 | 152 | 2.0 | 3.0 | 0.00 | 1.26 | 0.04 | 88 | 1015.1 |
| 20260903141322 | 81 | 152 | 1.0 | 3.0 | 0.00 | 1.26 | 0.04 | 90 | 1014.9 |
| 20260903134423 | 80 | 152 | 0.0 | 2.0 | 0.00 | 1.26 | 0.04 | 91 | 1014.9 |
| 20260903132923 | 80 | 152 | 0.0 | 2.0 | 0.00 | 1.26 | 0.04 | 91 | 1014.8 |
| 20260903131422 | 80 | 152 | 0.0 | 2.0 | 0.00 | 1.26 | 0.04 | 91 | 1014.7 |
| 20260903125922 | 79 | 152 | 1.0 | 3.0 | 0.00 | 1.26 | 0.04 | 91 | 1014.7 |
| 20260903124422 | 79 | 152 | 0.0 | 2.0 | 0.00 | 1.26 | 0.04 | 91 | 1014.5 |
| 20260903122921 | 79 | 152 | 0.0 | 0.0 | 0.00 | 1.26 | 0.04 | 91 | 1014.2 |
| 20260903121421 | 79 | 152 | 0.0 | 2.0 | 0.00 | 1.26 | 0.04 | 91 | 1013.9 |
| 20260903115921 | 79 | 152 | 0.0 | 3.0 | 0.00 | 1.26 | 0.04 | 91 | 1013.8 |
| 20260903115112 | 79 | 152 | 2.0 | 2.0 | 0.00 | 1.26 | 0.04 | 91 | 1013.8 |
| 20260903112920 | 79 | 152 | 0.0 | 3.0 | 0.00 | 1.26 | 0.04 | 90 | 1013.8 |
| 20260903111419 | 79 | 152 | 1.0 | 2.0 | 0.00 | 1.26 | 0.04 | 90 | 1013.7 |
| 20260903105919 | 79 | 152 | 0.0 | 2.0 | 0.00 | 1.26 | 0.04 | 90 | 1013.7 |
| 20260903104419 | 79 | 152 | 0.0 | 3.0 | 0.00 | 1.26 | 0.04 | 90 | 1013.5 |
| 20260903102919 | 79 | 152 | 0.0 | 2.0 | 0.00 | 1.26 | 0.04 | 90 | 1013.5 |
| 20260903101419 | 79 | 152 | 2.0 | 5.0 | 0.00 | 1.26 | 0.04 | 90 | 1013.4 |
| 20260903100614 | 79 | 152 | 0.0 | 5.0 | 0.00 | 1.26 | 0.04 | 90 | 1013.5 |
| 20260903094418 | 79 | 152 | 0.0 | 3.0 | 0.00 | 1.26 | 0.04 | 90 | 1013.3 |
| 20260903092918 | 80 | 152 | 2.0 | 2.0 | 0.00 | 1.26 | 0.04 | 90 | 1013.3 |
| 20260903091417 | 79 | 152 | 0.0 | 2.0 | 0.00 | 1.26 | 0.04 | 90 | 1013.3 |
| 20260903085917 | 79 | 152 | 0.0 | 7.0 | 0.00 | 1.27 | 0.04 | 90 | 1013.4 |
| 20260903084417 | 80 | 152 | 2.0 | 7.0 | 0.00 | 1.27 | 0.04 | 90 | 1013.2 |
| 20260903082916 | 80 | 135 | 2.0 | 5.0 | 0.00 | 1.27 | 0.04 | 90 | 1013.2 |
| 20260903081416 | 80 | 141 | 4.0 | 11.0 | 0.00 | 1.27 | 0.04 | 90 | 1013.1 |
| 20260903081310 | 80 | 151 | 2.0 | 11.0 | 0.00 | 1.27 | 0.04 | 91 | 1013.1 |
| 20260903074415 | 79 | 157 | 3.0 | 9.0 | 0.00 | 1.27 | 0.04 | 91 | 1013.1 |
| 20260903072915 | 80 | 141 | 2.0 | 7.0 | 0.00 | 1.27 | 0.04 | 91 | 1012.9 |
| 20260903071414 | 79 | 141 | 2.0 | 5.0 | 0.00 | 1.27 | 0.04 | 91 | 1013.1 |
| 20260903065914 | 79 | 141 | 1.0 | 3.0 | 0.01 | 1.26 | 0.04 | 91 | 1013.2 |
| 20260903064414 | 79 | 141 | 0.0 | 2.0 | 0.02 | 1.26 | 0.04 | 91 | 1013.3 |
| 20260903062914 | 79 | 141 | 0.0 | 5.0 | 0.03 | 1.26 | 0.04 | 91 | 1013.4 |
| 20260903061413 | 79 | 157 | 3.0 | 7.0 | 0.04 | 1.26 | 0.04 | 91 | 1013.4 |
| 20260903060615 | 79 | 157 | 6.0 | 11.0 | 0.03 | 1.23 | 0.03 | 91 | 1013.7 |
| 20260903055110 | 79 | 128 | 1.0 | 3.0 | 0.02 | 1.23 | 0.02 | 91 | 1014.0 |
| 20260903052912 | 79 | 128 | 0.0 | 2.0 | 0.01 | 1.23 | 0.01 | 90 | 1014.3 |
| 20260903051412 | 78 | 128 | 0.0 | 3.0 | 0.00 | 1.23 | 0.00 | 90 | 1014.4 |
| 20260903045912 | 78 | 128 | 0.0 | 2.0 | 0.00 | 1.23 | 1.23 | 90 | 1014.7 |
| 20260903044412 | 78 | 128 | 1.0 | 2.0 | 0.00 | 1.23 | 1.23 | 90 | 1014.7 |
| 20260903042910 | 78 | 128 | 0.0 | 2.0 | 0.00 | 1.23 | 1.23 | 90 | 1014.8 |
| 20260903041408 | 78 | 128 | 0.0 | 3.0 | 0.00 | 1.23 | 1.23 | 90 | 1014.5 |
| 20260903035907 | 78 | 128 | 0.0 | 2.0 | 0.00 | 1.23 | 1.23 | 90 | 1014.5 |
| 20260903034404 | 78 | 128 | 0.0 | 3.0 | 0.00 | 1.23 | 1.23 | 90 | 1014.4 |
| 20260903032906 | 77 | 128 | 0.0 | 7.0 | 0.00 | 1.23 | 1.23 | 90 | 1014.4 |
| 20260903031402 | 77 | 127 | 0.0 | 3.0 | 0.00 | 1.23 | 1.23 | 89 | 1014.2 |
| 20260903030613 | 76 | 127 | 2.0 | 3.0 | 0.00 | 1.23 | 1.23 | 89 | 1014.0 |
| 20260903024402 | 76 | 127 | 0.0 | 2.0 | 0.00 | 1.23 | 1.23 | 89 | 1013.9 |
| 20260903022903 | 76 | 127 | 0.0 | 3.0 | 0.03 | 1.23 | 1.23 | 88 | 1013.6 |
| 20260903021403 | 76 | 127 | 2.0 | 5.0 | 0.03 | 1.23 | 1.23 | 88 | 1013.2 |
| 20260903020555 | 76 | 102 | 3.0 | 5.0 | 0.03 | 1.20 | 1.23 | 87 | 1013.1 |
| 20260903014402 | 77 | 83 | 3.0 | 5.0 | 0.03 | 1.20 | 1.23 | 87 | 1013.2 |
| 20260903012902 | 77 | 80 | 2.0 | 7.0 | 0.00 | 1.20 | 1.20 | 87 | 1013.5 |
| 20260903011403 | 76 | 240 | 5.0 | 9.0 | 0.00 | 1.20 | 1.20 | 87 | 1013.7 |
| 20260903005902 | 76 | 109 | 1.0 | 13.0 | 0.00 | 1.20 | 1.20 | 86 | 1013.2 |
| 20260903004402 | 77 | 59 | 5.0 | 11.0 | 0.54 | 1.20 | 1.20 | 85 | 1012.4 |
| 20260903002902 | 76 | 97 | 4.0 | 11.0 | 0.89 | 1.20 | 1.20 | 85 | 1012.6 |
| 20260903001402 | 76 | 89 | 7.0 | 13.0 | 0.89 | 1.20 | 1.20 | 86 | 1012.4 |
| 20260903000557 | 77 | 18 | 8.0 | 34.0 | 0.89 | 0.31 | 1.20 | 85 | 1012.1 |
| 20260902234402 | 79 | 0 | 7.0 | 25.0 | 0.42 | 0.31 | 0.57 | 84 | 1012.3 |
| 20260902232902 | 79 | 302 | 6.0 | 20.0 | 0.08 | 0.31 | 0.31 | 85 | 1011.7 |
| 20260902231402 | 80 | 350 | 5.0 | 14.0 | 0.22 | 0.32 | 0.31 | 85 | 1011.5 |
| 20260902225903 | 80 | 3 | 5.0 | 14.0 | 0.30 | 0.06 | 0.31 | 85 | 1011.1 |
| 20260902224402 | 80 | 326 | 3.0 | 7.0 | 0.22 | 0.09 | 0.23 | 83 | 1011.3 |
| 20260902222902 | 81 | 350 | 4.0 | 9.0 | 0.22 | 0.14 | 0.23 | 79 | 1011.3 |
| 20260902221403 | 91 | 8 | 6.0 | 16.0 | 0.08 | 0.17 | 0.05 | 61 | 1011.9 |
| 20260902215902 | 93 | 148 | 4.0 | 14.0 | 0.00 | 0.26 | 0.01 | 52 | 1011.2 |
| 20260902214403 | 93 | 185 | 5.0 | 18.0 | 0.00 | 0.33 | 0.01 | 52 | 1011.3 |
| 20260902212902 | 93 | 190 | 5.0 | 18.0 | 0.00 | 0.33 | 0.01 | 52 | 1011.2 |
| 20260902212759 | 94 | 135 | 6.0 | 16.0 | 0.00 | 0.33 | 0.01 | 53 | 1011.4 |
| 20260902211634 | 94 | 166 | 5.0 | 13.0 | 0.00 | 0.33 | 0.01 | 53 | 1011.7 |
| 20260902211233 | 95 | 159 | 6.0 | 20.0 | 0.00 | 0.33 | 0.01 | 51 | 1011.7 |
| 20260902202901 | 95 | 155 | 10.0 | 18.0 | 0.00 | 0.33 | 0.01 | 52 | 1011.9 |
| 20260902201400 | 94 | 127 | 7.0 | 18.0 | 0.00 | 0.33 | 0.01 | 53 | 1012.2 |
| 20260902195900 | 94 | 176 | 4.0 | 24.0 | 0.00 | 0.33 | 0.01 | 53 | 1012.0 |
| 20260902194401 | 94 | 147 | 8.0 | 18.0 | 0.00 | 0.33 | 0.01 | 54 | 1012.4 |
| 20260902193555 | 93 | 197 | 4.0 | 16.0 | 0.00 | 0.33 | 0.01 | 54 | 1012.7 |
| 20260902191400 | 93 | 223 | 9.0 | 22.0 | 0.00 | 0.33 | 0.01 | 56 | 1012.8 |
| 20260902185900 | 93 | 195 | 3.0 | 16.0 | 0.00 | 0.33 | 0.01 | 58 | 1012.9 |
| 20260902184358 | 92 | 212 | 4.0 | 20.0 | 0.00 | 0.33 | 0.01 | 58 | 1013.2 |
| 20260902182858 | 92 | 252 | 5.0 | 20.0 | 0.00 | 0.33 | 0.01 | 63 | 1013.5 |
| 20260902181357 | 91 | 144 | 5.0 | 11.0 | 0.00 | 0.33 | 0.01 | 64 | 1013.8 |
| 20260902175855 | 90 | 162 | 4.0 | 13.0 | 0.00 | 0.33 | 0.01 | 67 | 1014.2 |
| 20260902174353 | 89 | 258 | 2.0 | 13.0 | 0.00 | 0.33 | 0.01 | 69 | 1014.5 |
| 20260902173545 | 89 | 276 | 6.0 | 13.0 | 0.00 | 0.33 | 0.01 | 70 | 1014.8 |